Probability
33 39 43 42 47 55 53 46 45 49 53 56 58 58 56 52 47 45 45 46 47 49 50 49 50 48 46 42 35 30 24 18 17 18 16 12 10 9 9 8 5 3 3
31 38 43 44 48 54 53 49 48 51 53 52 53 53 50 45 40 37 36 36 38 40 40 40 41 41 39 36 31 28 25 21 18 19 18 13 10 8 5 4 3 2 2
24 31 40 44 47 51 52 51 51 52 53 51 50 48 43 37 32 26 23 22 24 25 26 28 30 29 26 24 23 23 23 21 18 17 16 13 9 6 3 1 1 1 2
20 26 33 39 43 46 50 52 53 53 52 52 50 46 39 32 25 18 13 13 14 14 13 15 17 17 15 14 14 15 16 17 16 13 12 10 7 5 4 1 0 0 1
24 26 29 33 38 43 46 50 53 54 52 51 49 46 37 26 18 13 9 9 9 8 6 6 8 9 9 8 8 8 9 11 11 9 8 7 5 4 3 2 1 0 0
23 24 26 28 33 39 42 43 46 48 49 48 45 40 30 19 12 9 8 8 8 7 5 5 6 6 6 6 6 6 6 7 6 4 4 4 4 2 1 1 1 0 0
16 18 20 22 26 32 34 34 35 37 38 38 35 29 22 13 8 7 7 8 8 7 5 4 5 5 5 4 4 3 3 3 2 1 1 2 2 1 0 0 0 0 0
9 11 14 15 18 21 24 24 24 24 23 23 20 17 13 9 6 6 5 5 5 5 3 2 2 2 2 1 1 1 1 1 0 0 0 0 0 0 0 0 0 0 0
5 6 8 9 10 12 14 16 15 14 13 11 10 8 7 5 4 3 3 2 2 1 1 0 0 0 0 0 0 0 0 0 0 0 0 0 0 0 0 0 0 0 0
3 3 3 4 5 6 8 9 9 8 7 6 5 4 3 3 2 1 1 0 0 0 0 0 0 0 0 0 0 0 0 0 0 0 0 0 0 0 0 0 0 0 0
2 1 1 1 2 3 5 6 6 5 5 3 2 1 1 1 1 0 0 0 0 0 0 0 0 0 0 0 0 0 0 0 0 0 0 0 0 0 0 0 0 0 0
1 0 0 0 1 1 2 3 3 3 2 1 0 0 0 0 0 0 0 0 0 0 0 0 0 0 0 0 0 0 0 0 0 0 0 0 0 0 0 0 0 0 0
0 0 0 0 0 0 1 1 1 1 0 0 0 0 0 0 0 0 0 0 0 0 0 0 0 0 0 0 0 0 0 0 0 0 0 0 0 0 0 0 0 0 0
0 0 0 0 0 0 0 0 0 0 0 0 0 0 0 0 0 0 0 0 0 0 0 0 0 0 0 0 0 0 0 0 0 0 0 0 0 0 0 0 0 0 0
0 0 0 0 0 0 0 0 0 0 0 0 0 0 0 0 0 0 0 0 0 0 0 0 0 0 0 0 0 0 0 0 0 0 0 0 0 0 0 0 0 0 0
0 0 0 0 0 0 0 0 0 0 0 0 0 0 0 0 0 0 0 0 0 0 0 0 0 0 0 0 0 0 0 0 0 0 0 0 0 0 0 0 0 0 0
0 0 0 0 0 0 0 0 0 0 0 0 0 0 0 0 0 0 0 0 0 0 0 0 0 0 0 0 0 0 0 0 0 0 0 0 0 0 0 0 0 0 0
0 0 0 0 0 0 0 0 0 0 0 0 0 0 0 0 0 0 0 0 0 0 0 0 0 0 0 0 0 0 0 0 0 0 0 0 0 0 0 0 0 0 0
0 0 0 0 0 0 0 0 0 0 0 0 0 0 0 0 0 0 0 0 0 0 0 0 0 0 0 0 0 0 0 0 0 0 0 0 0 0 0 0 0 0 0
0 0 0 0 0 0 0 0 0 0 0 0 0 0 0 0 0 0 0 0 0 0 0 0 0 0 0 0 0 0 0 0 0 0 0 0 0 0 0 0 0 0 0
0 0 0 0 0 0 0 0 0 0 0 0 0 0 0 0 0 0 0 0 0 0 0 0 0 0 0 0 0 0 0 0 0 0 0 0 0 0 0 0 0 0 0
0 0 0 0 0 0 0 0 0 0 0 0 0 0 0 0 0 0 0 0 0 0 0 0 0 0 0 0 0 0 0 0 0 0 0 0 0 0 0 0 0 0 0
0 0 0 0 0 0 0 0 0 0 0 0 0 0 0 0 0 0 0 0 0 0 0 0 0 0 0 0 0 0 0 0 0 0 0 0 0 0 0 0 0 0 0
0 0 0 0 0 0 0 0 0 0 0 0 0 0 0 0 0 0 0 0 0 0 0 0 0 0 0 0 0 0 0 0 0 0 0 0 0 0 0 0 0 0 0
0 0 0 0 0 0 0 0 0 0 0 0 0 0 0 0 0 0 0 0 0 0 0 0 0 0 0 0 0 0 0 0 0 0 0 0 0 0 0 0 0 0 0
0 0 0 0 0 0 0 0 0 0 0 0 0 0 0 0 0 0 0 0 0 0 0 0 0 0 0 0 0 0 0 0 0 0 0 0 0 0 0 0 0 0 0
Wind_Speed
1 1 1 1 4 5 6 7 9 9 7 6 6 6 5 4 3 3 3 3 2 3 3 2 2 2 2 2 3 3 3 2 2 2 2 2 4 4 4 4 4 6 6
2 3 2 1 2 4 5 6 7 9 9 7 6 5 5 4 3 3 4 3 3 3 3 3 2 2 2 3 3 3 2 2 1 2 2 3 3 3 5 4 5 6 5
3 3 3 2 2 2 3 4 5 7 9 8 6 6 5 4 3 4 4 5 5 5 4 5 4 3 2 3 2 2 3 3 1 1 2 2 2 4 4 5 6 5 5
5 5 4 4 4 2 1 3 4 5 6 8 8 9 7 6 5 5 6 7 7 7 6 6 6 5 4 4 3 2 0 2 2 1 1 2 2 1 3 4 5 6 6
6 6 6 5 5 4 3 4 4 5 6 7 10 9 8 7 7 8 10 8 8 8 8 7 7 6 6 6 5 5 4 2 2 2 2 2 2 2 0 3 3 4 4
7 7 7 7 6 6 5 5 5 6 6 7 8 10 11 11 11 10 9 8 6 7 9 8 8 7 7 7 7 7 8 7 7 5 4 2 2 2 1 2 2 3 3
7 7 8 8 7 7 7 6 7 7 7 7 8 9 12 12 12 10 9 8 7 7 8 7 8 8 8 8 8 9 9 9 9 7 5 5 5 3 2 2 2 2 3
8 9 9 9 8 8 8 7 8 9 9 10 10 10 10 9 9 10 9 9 7 8 9 9 9 10 9 9 9 8 9 9 9 9 7 6 6 5 4 2 1 2 3
8 9 9 9 9 9 9 8 9 10 11 12 12 12 12 12 13 12 11 10 9 9 10 10 11 10 10 10 9 8 9 8 8 9 8 6 6 5 5 4 3 3 1
8 9 9 9 9 9 9 10 11 12 12 12 12 12 13 13 13 13 13 12 11 9 10 11 11 10 10 9 8 9 9 9 9 8 8 7 6 5 5 4 4 4 4
9 9 9 9 9 10 10 11 12 13 14 14 14 14 14 13 13 13 12 11 10 10 11 10 10 10 10 9 9 10 10 10 9 8 9 8 8 6 5 5 4 4 4
9 9 9 9 10 11 11 11 12 13 13 13 14 14 14 14 13 13 12 11 11 10 10 10 10 9 9 9 9 9 9 9 9 8 8 8 6 6 6 5 5 5 4
10 9 9 9 10 10 11 11 12 13 13 13 14 14 14 14 14 12 11 11 10 10 9 9 9 9 9 8 8 8 9 8 8 8 7 7 6 6 6 5 5 4 3
10 9 9 9 10 10 11 12 12 12 13 14 14 14 13 13 13 12 11 10 10 10 9 9 9 8 8 8 8 8 8 8 7 7 6 7 7 7 5 4 4 4 3
10 10 10 10 10 11 11 11 12 12 13 14 14 14 12 12 12 11 11 10 9 9 8 8 8 8 7 7 6 6 7 6 6 6 6 7 6 7 6 6 6 5 5
11 11 11 11 10 10 11 11 12 11 12 13 13 12 12 11 11 11 10 9 9 8 8 8 8 8 8 8 9 5 6 5 5 5 5 5 3 2 3 2 4 6 6
12 11 11 10 10 10 10 11 11 11 12 12 12 12 11 11 10 10 10 9 9 8 8 8 9 10 9 7 7 7 3 5 5 4 4 4 5 3 4 2 7 6 6
12 12 11 11 10 11 11 11 11 11 11 11 11 11 10 10 9 9 9 9 8 7 7 8 8 9 8 6 5 7 0 4 4 4 4 4 4 7 7 6 4 3 2
11 11 12 12 11 11 11 11 11 10 10 10 10 10 9 9 9 9 8 7 7 7 7 7 7 8 8 6 6 10 2 3 4 3 4 5 5 7 8 6 5 4 3
11 12 12 12 11 11 10 11 11 10 10 9 9 9 8 8 8 8 7 7 6 6 6 7 7 7 7 6 7 11 1 3 2 3 4 6 6 6 8 7 6 6 6
13 12 12 11 11 11 10 10 10 10 9 9 9 8 8 7 7 6 6 5 5 6 6 6 6 6 6 6 6 9 5 4 2 3 3 6 6 5 6 7 6 6 8
13 12 11 11 10 10 10 10 10 9 9 8 8 8 7 6 6 6 5 5 5 5 5 5 5 5 5 5 5 5 5 7 4 4 5 6 4 4 5 5 6 9 10
13 11 12 11 10 9 9 10 10 9 8 8 8 7 7 6 5 5 5 4 3 2 3 4 4 5 5 6 3 2 1 3 3 5 5 3 3 5 2 0 5 8 5
12 11 12 12 10 9 9 9 9 8 8 7 7 6 6 6 5 3 3 3 3 3 3 3 3 4 4 4 3 2 4 5 3 1 3 7 7 5 2 2 2 4 5
11 11 11 11 11 10 9 9 8 7 7 7 5 5 5 6 5 6 6 5 7 7 5 4 3 3 5 7 7 7 6 7 6 6 3 1 2 3 4 4 4 4 4
11 11 11 11 11 10 9 8 7 7 6 6 5 4 4 4 4 6 6 8 7 5 6 8 7 6 7 5 4 3 4 5 7 7 2 3 4 5 5 5 5 5 5
Wind_Direction
76 69 103 177 162 161 171 183 183 177 177 182 188 180 177 166 155 149 141 153 172 175 178 193 171 189 181 176 178 178 168 177 176 170 140 103 83 73 63 55 58 62 60
30 31 42 90 152 158 172 176 180 171 176 180 182 177 159 146 135 118 97 91 114 128 147 148 140 131 137 137 155 185 192 177 220 237 202 185 156 91 59 60 64 61 61
31 36 41 51 91 123 154 162 166 171 176 169 153 142 131 130 133 110 87 70 77 84 97 104 102 100 125 125 131 178 193 179 156 314 274 244 200 133 95 65 62 59 58
49 47 48 48 50 56 98 132 139 156 163 157 155 151 154 153 139 118 100 84 75 76 80 88 95 97 91 96 98 81 126 179 167 136 32 19 12 197 142 110 79 63 54
56 53 50 50 51 54 65 87 107 130 148 157 155 152 149 135 123 115 104 90 78 74 76 78 81 84 82 81 79 79 70 76 88 101 104 90 72 29 135 130 114 88 63
66 59 58 58 54 53 61 75 90 101 121 137 144 145 139 131 122 111 106 96 87 79 76 79 81 81 81 80 79 81 79 72 68 64 58 61 61 63 69 109 129 116 91
64 58 54 54 53 52 57 70 85 91 94 109 117 122 125 123 116 112 106 103 95 87 80 83 84 83 82 82 82 80 78 77 76 71 68 61 54 47 53 91 121 118 120
69 59 52 51 52 54 59 71 83 87 89 90 91 97 106 104 101 100 99 92 88 89 90 86 84 84 84 85 83 82 81 78 77 72 66 66 58 49 47 43 55 158 146
75 66 56 53 53 55 57 71 85 87 87 88 90 90 91 93 96 95 92 90 90 92 91 89 87 85 84 83 84 83 83 82 80 79 74 67 65 53 48 43 14 345 339
83 72 62 59 59 61 65 71 80 85 86 86 86 89 89 92 93 91 90 90 89 90 91 89 89 89 89 90 91 89 84 82 75 69 65 58 61 56 52 47 42 22 4
86 78 71 66 68 69 72 77 80 83 84 84 87 88 87 88 90 91 91 91 90 90 90 91 90 89 87 84 84 86 86 83 80 76 73 65 49 47 49 48 45 39 25
92 84 80 76 73 72 74 78 82 85 87 89 89 89 89 90 90 90 90 90 89 88 89 89 89 90 88 87 88 88 86 84 80 75 72 68 66 57 45 40 45 46 25
97 90 85 82 81 80 81 83 86 89 92 94 93 92 91 92 92 92 92 91 90 88 86 88 89 88 88 87 87 88 86 82 77 73 70 65 58 52 51 34 37 34 35
107 102 95 90 89 90 90 91 91 94 97 97 96 94 93 94 95 94 92 91 91 89 87 87 88 90 90 92 92 91 88 85 79 72 66 56 47 41 34 39 35 18 357
114 110 105 100 98 97 95 95 96 98 100 100 97 96 97 98 97 94 92 91 90 91 91 93 93 91 84 69 73 95 94 90 87 80 70 62 48 29 4 4 6 357 348
124 119 115 110 106 105 104 102 101 101 102 101 101 102 102 100 98 97 95 93 91 92 93 92 91 83 71 44 25 20 95 88 82 78 76 97 98 98 210 275 313 329 339
131 125 119 115 112 108 107 106 105 105 104 104 106 106 106 103 102 102 100 98 98 96 93 91 89 85 72 47 31 3 42 83 70 61 46 44 57 348 11 214 220 227 229
135 131 126 121 116 114 113 112 112 111 110 111 111 111 109 106 105 103 101 100 99 97 95 91 90 89 74 44 20 332 11 85 78 60 42 29 29 29 350 340 0 11 54
134 130 128 126 124 123 122 121 118 116 115 114 114 114 113 112 111 107 104 103 103 101 101 95 93 92 86 46 6 324 125 95 89 69 47 14 29 35 335 324 357 7 29
132 131 131 129 128 129 130 127 124 123 119 118 115 113 110 108 106 106 106 104 107 107 103 96 90 85 79 56 14 335 351 88 103 110 116 81 24 2 337 336 358 4 4
137 137 137 134 133 136 134 129 126 122 119 117 115 112 109 108 106 107 106 109 109 105 100 105 102 90 77 91 42 1 347 20 40 68 74 72 35 5 343 325 355 351 316
139 139 136 132 134 137 136 130 124 122 121 118 116 113 111 107 106 109 112 112 116 125 122 121 122 115 108 68 67 24 10 336 1 32 45 63 24 353 344 351 353 312 292
141 140 137 135 137 140 138 131 129 131 128 122 115 108 104 95 99 111 118 124 131 119 119 126 119 110 110 124 162 181 322 325 346 43 44 5 303 278 230 124 303 302 322
142 144 141 138 136 138 136 131 134 135 131 124 120 120 115 107 97 88 90 89 85 93 104 98 100 106 109 78 70 113 158 191 204 169 173 215 241 261 316 279 303 347 5
145 146 143 141 140 140 139 137 138 141 132 129 128 123 109 99 101 79 49 42 56 33 16 49 68 65 76 50 11 346 6 3 13 329 303 328 2 354 12 9 11 357 358
145 144 143 143 144 145 144 141 143 142 141 142 143 135 123 119 122 123 112 58 56 71 54 31 15 62 56 29 6 355 337 319 313 301 335 14 5 3 3 358 358 3 6